Regional Weather Roundup
Issued by NWS Portland, ME

Current Version | Previous Version | Text Only | Print | Product List | Glossary On
Versions: 1 2 3 4 5 6 7 8 9 10 11 12 13 14 15 16 17 18 19 20 21 22 23 24 25 26 27 28 29 30 31 32 33 34 35 36 37 38 39 40 41 42 43 44 45 46 47 48 49 50
000
ASUS41 KGYX 251410
RWRGYX
WEATHER ROUNDUP FOR MAINE AND NEW HAMPSHIRE
NATIONAL WEATHER SERVICE GRAY ME
1000 AM EDT TUE APR 25 2017

MEZ002-005-006-010-012-015-018-020-021-024-026-027-029-251500-
MAINE

CITY           SKY/WX    TMP DP  RH WIND       PRES   REMARKS
PORTLAND       LGT RAIN  45  42  89 NE13      30.37F
SANFORD        LGT RAIN  45  44  97 NE13      30.37R
BAR HARBOR     MOSUNNY   49  30  48 E10G18    30.43S
WISCASSET      CLOUDY    47  41  80 E9        30.40F
ROCKLAND       CLOUDY    45  34  65 NE12G18   30.41R
FRYEBURG       LGT RAIN  46  35  65 E3        30.37S
LEWISTONAUBURN CLOUDY    46  34  62 E7        30.39R
AUGUSTA        CLOUDY    47  28  47 NE7       30.40R
WATERVILLE     CLOUDY    46  29  51 VRB5      30.39R
BANGOR         PTSUNNY   49  24  37 E8        30.43S
GREENVILLE       N/A     42  21  43 VRB7      30.37S
MILLINOCKET    SUNNY     43  17  35 E7        30.46F
HOULTON        SUNNY     41  13  31 E6        30.46F
PRESQUE ISLE   SUNNY     38  13  35 CALM      30.48F
FRENCHVILLE    SUNNY     34   9  35 S6        30.45F
CARIBOU        MOSUNNY   38  15  39 SE8       30.46F
$$

NHZ002-005-008-009-011-012-014-251500-
NEW HAMPSHIRE

CITY           SKY/WX    TMP DP  RH WIND       PRES   REMARKS
PORTSMOUTH     LGT RAIN  47  44  92 NE15      30.32F
ROCHESTER      CLOUDY    46  42  86 NE7       30.34S
NASHUA         LGT RAIN  49  46  90 NE8       30.30F
MANCHESTER     CLOUDY    48  43  82 NE9G18    30.30S
CONCORD        LGT RAIN  47  44  90 NE7       30.33S
LACONIA        LGT RAIN  43  35  73 E13       30.35R
PLYMOUTH       LGT RAIN  44  39  82 SE6       30.34R
BERLIN         CLOUDY    51  28  41 VRB3      30.32R
WHITEFIELD     CLOUDY    55  32  41 SE13G18   30.29R
JAFFREY        LGT RAIN  47  45  93 VRB6      30.28S
KEENE          LGT RAIN  48  44  86 N6        30.29R
LEBANON        LGT RAIN  50  42  74 CALM      30.30R
MT WASHINGTON  MOSUNNY   30  27  86 SE40        N/A  WCI  13
$$

VTZ005-007-008-251500-
VERMONT

CITY           SKY/WX    TMP DP  RH WIND       PRES   REMARKS
ST JOHNSBURY     N/A     53  35  50 MISG      30.26F
MONTPELIER     PTSUNNY   54  38  54 SE9       30.29F
BURLINGTON     PTSUNNY   52  34  50 SW5       30.24S
$$

MAZ007-012-024-CTZ003-RIZ002-NYZ038-NYZ072-251500-
SOUTHERN NEW ENGLAND AND NY

CITY           SKY/WX    TMP DP  RH WIND       PRES   REMARKS
BOSTON         CLOUDY    48  45  89 NE18      30.29R
WORCESTER      CLOUDY    46  44  93 NE16G23   30.25R
NANTUCKET      CLOUDY    49  47  93 NE16G24   30.19F
PROVIDENCE     LGT RAIN  51  50  96 NE9       30.24R
HARTFORD       LGT RAIN  51  49  92 N12       30.21F
ALBANY         LGT RAIN  47  37  68 N5        30.22R
NEW YORK CITY  CLOUDY    53  49  86 NE23G31   30.10R
$$

ANZ081-ANZ082-ANZ150-NHZ014-MEZ023>029-251500-
COASTAL MARINE OBSERVATIONS

STATION/POSITION TIME  TEMP    WIND        PRES    WAVE
                       AIR SEA DIR/SP/G            HT/PER
                 (UTC) (F)     (DEG/KT/KT) (MB)    (FT/S)
MOUNT DESERT ROC 1400   41                 1029.5R
MATINICUS ROCK   1400   42      60/ 22/ 24 1027.9F
ISLE OF SHOALS   1400   43      30/ 21/ 23 1026.2F
JEFFREYS LEDGE   1306      44                N/A     2/13
CASHES LEDGE BUO 1250   42 43              1027.4    3/12
GEORGES BANK BUO 1250   45 41              1024.6    4/11
$$

.............KEY..............
   WCI - WIND CHILL
   TC  - TEMPERATURE IN CELSIUS
   VSB - VISIBILITY IN MILES
   HX  - HEAT INDEX
   FAIR- INDICATES FEW OR NO CLOUDS BELOW 12,000 FT, WITH NO
         SIGNIFICANT WEATHER AND/OR OBSTRUCTIONS TO VISIBILITY.





USA.gov is the U.S. government's official web portal to all federal, state and local government web resources and services.